This is the latest recevied weather packets stored in our database for station/object KP4OZ. If no packets are shown the sender has not sent any weather packets the latest 10 day(s).
| Time | Temp. | Humidity | Pressure | Rain* | Wind** | Luminosity | Snow |
|---|---|---|---|---|---|---|---|
| 1777731171 | 30.56° C | 69% | 1017.5 hPa | 0 mm | - | - | - |
| 1777730869 | 30.56° C | 68% | 1017.5 hPa | 0 mm | - | - | - |
| 1777730567 | 30° C | 69% | 1017.5 hPa | 0 mm | - | - | - |
| 1777730262 | 30.56° C | 67% | 1017.5 hPa | 0 mm | - | - | - |
| 1777729959 | 29.44° C | 69% | 1017.5 hPa | 0 mm | - | - | - |
| 1777729655 | 29.44° C | 70% | 1017.5 hPa | 0 mm | - | - | - |
| 1777729352 | 29.44° C | 68% | 1017.5 hPa | 0 mm | - | - | - |
| 1777729049 | 28.89° C | 70% | 1017.5 hPa | 0 mm | - | - | - |
| 1777728745 | 28.89° C | 71% | 1017.5 hPa | 0 mm | - | - | - |
| 1777728442 | 28.89° C | 71% | 1017.2 hPa | 0 mm | - | - | - |
| 1777728139 | 28.89° C | 71% | 1017.4 hPa | 0 mm | - | - | - |
| 1777727836 | 28.89° C | 69% | 1017.3 hPa | 0 mm | - | - | - |
| 1777727534 | 28.89° C | 71% | 1017.2 hPa | 0 mm | - | - | - |
| 1777727231 | 28.89° C | 71% | 1017.3 hPa | 0 mm | - | - | - |
| 1777726928 | 28.33° C | 72% | 1017.3 hPa | 0 mm | - | - | - |
| 1777726624 | 28.89° C | 72% | 1017.5 hPa | 0 mm | - | - | - |
| 1777726322 | 28.89° C | 72% | 1017.1 hPa | 0 mm | - | - | - |
| 1777726019 | 29.44° C | 71% | 1017.3 hPa | 0 mm | - | - | - |
| 1777725715 | 29.44° C | 71% | 1017.3 hPa | 0 mm | - | - | - |
| 1777725414 | 29.44° C | 70% | 1017 hPa | 0 mm | - | - | - |
| 1777725111 | 28.89° C | 72% | 1017 hPa | 0 mm | - | - | - |
| 1777724807 | 28.33° C | 73% | 1017 hPa | 0 mm | - | - | - |
| 1777724504 | 28.33° C | 74% | 1016.9 hPa | 0 mm | - | - | - |
| 1777724202 | 28.33° C | 75% | 1016.9 hPa | 0 mm | - | - | - |
| 1777723899 | 28.33° C | 73% | 1017 hPa | 0 mm | - | - | - |
* Rain latest hour (hover to see other rain measurements)
** Current wind speed in m/s (hover to see current wind gust speed)